Weather History for KCON - January, 2013

Change the Weather History Date:

Saturday, January 26, 2013

  Actual Average Record
Temperature  
Mean Temperature 11 °F 21 °F  
Max Temperature 20 °F 31 °F 63 °F (1950)
Min Temperature 2 °F 10 °F -29 °F (1877)
Degree Days  
Heating Degree Days 54 44  
Month to date heating degree days 1111 1158  
Since 1 July heating degree days 3631 3904  
Cooling Degree Days 0 0  
Month to date cooling degree days 0 0  
Year to date cooling degree days 0 0  
Moisture  
Dew Point -1 °F    
Average Humidity 57    
Maximum Humidity 84    
Minimum Humidity 30    
Precipitation  
Precipitation 0.01 in 0.09 in 1.52 in (1986)
Month to date precipitation 0.58 2.27  
Year to date precipitation 0.58 2.27  
Snow  
Snow 0.00 in 0.60 in 17.10 in (1888)
Month to date snowfall 4.7 15.3  
Since 1 July snowfall 19.1 32.4  
Snow Depth 3.00 in    
Sea Level Pressure  
Sea Level Pressure 30.09 in    
Wind  
Wind Speed 10 mph (NW)    
Max Wind Speed 24 mph    
Max Gust Speed 33 mph    
Visibility 9 miles    
Events Snow    
T = Trace of Precipitation, MM = Missing Value Source: NWS Daily Summary

Daily Weather History Graph

Daily Weather History Graph

Search for Another Location

Airport or City:

Trip Planner

Search our weather history database for the weather conditions in past years. The results will help you decide how hot, cold, wet, or windy it might be!

Date:

Astronomy

Jan. 26, 2013 Rise Set
Actual Time 7:07 AM EST 4:50 PM EST
Civil Twilight 6:36 AM EST 5:21 PM EST
Nautical Twilight 6:02 AM EST 5:55 PM EST
Astronomical Twilight 5:28 AM EST 6:29 PM EST
Moon 4:43 PM EST (1/26) 6:22 AM EST (1/26)
Length of Visible Light 10h 44m
Length of Day
9h 43m
Full, 100% of the Moon is Illuminated
Jan 26
Full
Jan 26
Full
Feb 3
Last Quarter
Feb 10
New
Feb 17
First Quarter

Hourly Weather History & Observations

Time (EST) Temp. Windchill Dew Point Humidity Pressure Visibility Wind Dir Wind Speed Gust Speed Precip Events Conditions
12:12 AM 12.2 °F 4.3 °F 8.6 °F 85% 30.05 in 3.0 mi NW 4.6 mph - 0.00 in Snow Light Snow
12:33 AM 12.2 °F 1.7 °F 8.6 °F 85% 30.04 in 2.5 mi NW 6.9 mph - 0.01 in Snow Light Snow
12:51 AM 12.2 °F 2.9 °F 8.6 °F 85% 30.04 in 3.0 mi WNW 5.8 mph - N/A Snow Light Snow
1:51 AM 12.0 °F 4.1 °F 7.0 °F 80% 30.05 in 5.0 mi WNW 4.6 mph - 0.00 in Snow Light Snow
2:51 AM 10.9 °F 1.4 °F 6.1 °F 81% 30.03 in 10.0 mi NW 5.8 mph - 0.00 in   Overcast
3:51 AM 10.0 °F 1.8 °F 3.9 °F 76% 30.02 in 10.0 mi NW 4.6 mph - N/A   Mostly Cloudy
4:51 AM 8.1 °F -2.0 °F 3.0 °F 80% 30.02 in 10.0 mi NW 5.8 mph - N/A   Clear
5:51 AM 7.0 °F - 1.9 °F 80% 30.04 in 10.0 mi Calm Calm - N/A   Clear
6:51 AM 6.1 °F - -0.9 °F 73% 30.06 in 10.0 mi Calm Calm - N/A   Clear
7:51 AM 8.1 °F -0.5 °F -0.0 °F 70% 30.07 in 10.0 mi WNW 4.6 mph - N/A   Clear
8:51 AM 10.9 °F -1.8 °F -0.0 °F 61% 30.08 in 10.0 mi NNW 9.2 mph - N/A   Clear
9:51 AM 14.0 °F 0.5 °F -0.0 °F 54% 30.09 in 10.0 mi NW 11.5 mph - N/A   Clear
10:51 AM 16.0 °F 2.3 °F -0.9 °F 47% 30.08 in 10.0 mi NW 12.7 mph - N/A   Clear
11:51 AM 18.0 °F 4.2 °F -4.0 °F 38% 30.06 in 10.0 mi NW 13.8 mph 20.7 mph N/A   Clear
12:51 PM 19.0 °F 5.0 °F -4.0 °F 36% 30.04 in 10.0 mi WNW 15.0 mph 20.7 mph N/A   Clear
1:51 PM 19.0 °F 4.0 °F -6.0 °F 33% 30.05 in 10.0 mi NW 17.3 mph - N/A   Clear
2:51 PM 19.0 °F 5.6 °F -7.1 °F 31% 30.08 in 10.0 mi NNW 13.8 mph 24.2 mph N/A   Clear
3:51 PM 17.6 °F 2.7 °F -7.6 °F 32% 30.07 in 10.0 mi WNW 16.1 mph 24.2 mph N/A   Clear
4:51 PM 16.0 °F 6.3 °F -7.1 °F 36% 30.12 in 10.0 mi NW 6.9 mph - N/A   Overcast
5:51 PM 15.1 °F -3.3 °F -11.0 °F 31% 30.15 in 10.0 mi NW 23.0 mph 32.2 mph N/A   Clear
6:51 PM 12.9 °F -2.8 °F -8.0 °F 39% 30.17 in 10.0 mi NW 15.0 mph 21.9 mph N/A   Clear
7:51 PM 10.9 °F -1.8 °F -5.1 °F 49% 30.19 in 10.0 mi NNW 9.2 mph - N/A   Clear
8:51 PM 12.0 °F -2.0 °F -2.0 °F 53% 30.19 in 10.0 mi NW 11.5 mph 18.4 mph N/A   Clear
9:51 PM 10.9 °F -3.4 °F -0.9 °F 59% 30.19 in 10.0 mi WNW 11.5 mph 20.7 mph N/A   Clear
10:51 PM 10.9 °F -4.7 °F -0.0 °F 61% 30.22 in 10.0 mi WNW 13.8 mph 20.7 mph N/A   Clear
11:51 PM 10.9 °F -1.8 °F -0.0 °F 61% 30.22 in 10.0 mi NW 9.2 mph - N/A   Clear